Location: Go�ngahuizen
(53.0821°N, 5.8849°E)
Time: 16:47:41
(UTC+00:00)

SPOT 1/Viking Rocket - Pass Details

Date: 09 April 2020
Orbit: 776 x 795 km, 98.5° (Epoch: 02 June)

Event Time Altitude Azimuth Distance (km) Brightness Sun altitude
Exits shadow 21:30:46 28° 212° (SSW) 1,462 4.7 -23.2°
Maximum altitude 21:32:59 42° 262° (W) 1,126 4.5 -23.4°
Drops below altitude 10° 21:37:58 10° 334° (NNW) 2,378 7.1 -23.8°
Sets 21:40:26 0° 341° (NNW) 3,313 8.1 -24.0°
